�������l�o���
Date,Time,MP-1(��Sv/h),MP-2(��Sv/h),MP-3(��Sv/h),MP-4(��Sv/h),MP-5(��Sv/h),MP-6(��Sv/h),MP-7(��Sv/h),MP-8(��Sv/h),����,����(m/s),���J
2014/06/12,00:00,2.2,3.8,4.3,3.8,3.9,1.5,2.1,2.4,�쓌,9.6,�L
2014/06/12,00:10,2.2,3.8,4.3,3.8,3.9,1.5,2.1,2.4,�쓌,8.9,��
2014/06/12,00:20,2.2,3.8,4.3,3.8,4.0,1.5,2.1,2.4,�쓌,7.8,��
2014/06/12,00:30,2.2,3.8,4.3,3.8,4.0,1.5,2.1,2.4,�쓌,7.9,��
2014/06/12,00:40,2.2,3.8,4.3,3.8,4.0,1.5,2.1,2.4,��쓌,6.6,��
2014/06/12,00:50,2.2,3.8,4.3,3.9,4.0,1.5,2.1,2.4,��쓌,6.9,��
2014/06/12,01:00,2.2,3.8,4.3,3.9,4.0,1.5,2.1,2.4,��쓌,6.9,�L
2014/06/12,01:10,2.2,3.8,4.3,3.9,4.0,1.5,2.1,2.4,��쓌,7.7,�L
2014/06/12,01:20,2.2,3.9,4.3,3.9,4.0,1.5,2.1,2.4,��쓌,6.0,�L
2014/06/12,01:30,2.2,3.9,4.3,3.9,4.0,1.5,2.2,2.5,��쓌,6.9,�L
2014/06/12,01:40,2.2,3.8,4.3,3.9,4.0,1.5,2.1,2.5,��쓌,5.1,�L
2014/06/12,01:50,2.2,3.8,4.3,3.9,4.0,1.5,2.1,2.5,�쓌,6.3,�L
2014/06/12,02:00,2.2,3.8,4.3,3.9,4.0,1.5,2.1,2.4,��쓌,4.9,�L
2014/06/12,02:10,2.2,3.8,4.3,3.9,4.0,1.5,2.1,2.4,�쓌,5.0,�L
2014/06/12,02:20,2.2,3.8,4.3,3.9,4.0,1.5,2.1,2.5,�쓌,5.0,�L
2014/06/12,02:30,2.2,3.8,4.3,3.9,4.0,1.5,2.1,2.5,�쓌,5.4,�L
2014/06/12,02:40,2.2,3.8,4.3,3.9,4.0,1.5,2.1,2.5,�쓌,4.6,�L
2014/06/12,02:50,2.2,3.8,4.3,3.9,4.0,1.5,2.1,2.5,�쓌,5.1,�L
2014/06/12,03:00,2.2,3.8,4.3,3.8,4.0,1.5,2.1,2.4,�쓌,4.7,�L
2014/06/12,03:10,2.2,3.8,4.3,3.8,4.0,1.5,2.1,2.5,�쓌,5.3,�L
2014/06/12,03:20,2.2,3.8,4.3,3.8,4.0,1.5,2.1,2.5,�쓌,5.5,�L
2014/06/12,03:30,2.2,3.8,4.3,3.8,4.0,1.5,2.1,2.4,�쓌,6.5,�L
2014/06/12,03:40,2.2,3.8,4.3,3.9,4.0,1.5,2.1,2.4,���쓌,4.9,�L
2014/06/12,03:50,2.2,3.8,4.3,3.8,3.9,1.5,2.1,2.4,�쓌,4.5,�L
2014/06/12,04:00,2.2,3.8,4.2,3.8,3.9,1.5,2.1,2.4,���쓌,6.8,�L
2014/06/12,04:10,2.2,3.8,4.3,3.8,3.9,1.5,2.1,2.4,���쓌,7.4,�L
2014/06/12,04:20,2.2,3.8,4.3,3.8,3.9,1.5,2.1,2.4,���쓌,9.4,�L
2014/06/12,04:30,2.2,3.8,4.2,3.8,3.9,1.5,2.1,2.4,���쓌,9.9,�L
2014/06/12,04:40,2.2,3.8,4.3,3.8,3.9,1.5,2.1,2.4,���쓌,9.1,�L
2014/06/12,04:50,2.2,3.8,4.2,3.8,3.9,1.5,2.1,2.4,���쓌,9.6,�L
2014/06/12,05:00,2.2,3.8,4.2,3.8,3.9,1.5,2.1,2.4,���쓌,10.2,�L
2014/06/12,05:10,2.2,3.8,4.2,3.8,3.9,1.5,2.1,2.4,���쓌,9.3,��
2014/06/12,05:20,2.2,3.8,4.3,3.8,3.9,1.5,2.1,2.4,���쓌,9.3,��
2014/06/12,05:30,2.2,3.8,4.3,3.8,3.9,1.5,2.1,2.4,���쓌,9.3,��
2014/06/12,05:40,2.2,3.8,4.3,3.8,3.9,1.5,2.1,2.4,���쓌,9.6,�L
2014/06/12,05:50,2.2,3.8,4.3,3.8,3.9,1.5,2.1,2.4,���쓌,8.9,�L
2014/06/12,06:00,2.2,3.8,4.3,3.8,3.9,1.5,2.1,2.4,���쓌,7.1,�L
2014/06/12,06:10,2.2,3.8,4.3,3.8,3.9,1.5,2.1,2.4,���쓌,6.5,�L
2014/06/12,06:20,2.2,3.8,4.3,3.8,3.9,1.5,2.1,2.4,���쓌,6.6,�L
2014/06/12,06:30,2.2,3.8,4.2,3.8,3.9,1.5,2.1,2.4,���쓌,6.4,�L
2014/06/12,06:40,2.2,3.8,4.2,3.8,3.9,1.5,2.1,2.4,���쓌,7.7,�L
2014/06/12,06:50,2.2,3.8,4.2,3.8,3.9,1.5,2.1,2.4,���쓌,7.7,��
2014/06/12,07:00,2.2,3.8,4.3,3.8,3.9,1.5,2.1,2.4,���쓌,7.7,��
2014/06/12,07:10,2.2,3.8,4.3,3.8,3.9,1.5,2.1,2.4,��,8.3,��
2014/06/12,07:20,2.2,3.8,4.3,3.8,3.9,1.5,2.1,2.4,��,7.9,��
2014/06/12,07:30,2.2,3.8,4.3,3.8,3.9,1.5,2.1,2.4,��,7.1,��
2014/06/12,07:40,2.2,3.8,4.3,3.8,3.9,1.5,2.1,2.4,���쓌,7.7,��
2014/06/12,07:50,2.2,3.8,4.3,3.8,3.9,1.5,2.1,2.4,��,6.1,�L
2014/06/12,08:00,2.2,3.8,4.3,3.8,3.9,1.5,2.1,2.4,��,6.3,�L
2014/06/12,08:10,2.2,3.8,4.3,3.8,3.9,1.5,2.1,2.4,��,6.5,�L
2014/06/12,08:20,2.2,3.8,4.3,3.8,3.9,1.5,2.1,2.4,��,7.7,�L
2014/06/12,08:30,2.2,3.8,4.3,3.8,3.9,1.5,2.1,2.4,��,8.9,�L
2014/06/12,08:40,2.2,3.8,4.3,3.8,3.9,1.5,2.1,2.4,��,9.9,�L
2014/06/12,08:50,2.2,3.8,4.3,3.8,3.9,1.5,2.1,2.4,��,10.4,�L
2014/06/12,09:00,2.2,3.8,4.3,3.8,3.9,1.5,2.1,2.4,��,9.7,�L
2014/06/12,09:10,2.2,3.8,4.3,3.8,3.9,1.5,2.1,2.4,��,10.1,�L
2014/06/12,09:20,2.2,3.8,4.2,3.8,3.9,1.5,2.1,2.4,��,9.1,�L
2014/06/12,09:30,2.2,3.8,4.2,3.8,3.9,1.5,2.1,2.4,��,9.9,�L
2014/06/12,09:40,2.2,3.8,4.2,3.8,3.9,1.5,2.1,2.4,��,9.1,�L
2014/06/12,09:50,2.2,3.8,4.2,3.8,3.9,1.5,2.1,2.4,��,8.8,�L
2014/06/12,10:00,2.2,3.7,4.2,3.8,3.8,1.5,2.1,2.4,��,8.9,�L
2014/06/12,10:10,2.2,3.7,4.2,3.8,3.8,1.5,2.1,2.4,��,9.6,�L
2014/06/12,10:20,2.2,3.7,4.2,3.8,3.8,1.5,2.1,2.4,��,7.1,�L
2014/06/12,10:30,2.2,3.7,4.2,3.8,3.8,1.5,2.1,2.4,��,6.7,�L
2014/06/12,10:40,2.1,3.7,4.2,3.8,3.8,1.5,2.1,2.4,��,6.6,�L
2014/06/12,10:50,2.2,3.7,4.2,3.8,3.8,1.5,2.1,2.4,��,7.9,�L
2014/06/12,11:00,2.1,3.7,4.2,3.8,3.8,1.5,2.1,2.4,���k��,8.0,�L
2014/06/12,11:10,2.2,3.7,4.2,3.7,3.8,1.5,2.1,2.4,���k��,6.9,�L
2014/06/12,11:20,2.1,3.7,4.2,3.8,3.7,1.5,2.1,2.4,�k��,7.7,�L
2014/06/12,11:30,2.1,3.7,4.2,3.8,3.7,1.5,2.1,2.4,�k�k��,4.2,�L
2014/06/12,11:40,2.1,3.7,4.1,3.7,3.7,1.4,2.1,2.4,�k�k��,4.7,�L
2014/06/12,11:50,2.1,3.7,4.1,3.7,3.7,1.4,2.1,2.4,�k�k��,3.3,�L
2014/06/12,12:00,2.1,3.6,4.1,3.7,3.6,1.4,2.1,2.4,�k�k��,5.0,�L
2014/06/12,12:10,2.1,3.6,4.1,3.7,3.6,1.4,2.1,2.4,�k�k��,8.8,�L
2014/06/12,12:20,2.1,3.6,4.1,3.7,3.6,1.4,2.1,2.4,�k,7.4,�L
2014/06/12,12:30,2.1,3.7,4.1,3.7,3.6,1.4,2.1,2.4,�k��,6.3,�L
2014/06/12,12:40,2.1,3.6,4.0,3.7,3.5,1.4,2.0,2.4,�k,2.8,�L
2014/06/12,12:50,2.1,3.6,3.9,3.6,3.4,1.4,2.0,2.3,�k,10.4,�L
2014/06/12,13:00,2.1,3.6,3.9,3.6,3.4,1.4,2.0,2.3,-,CALM,�L
2014/06/12,13:10,2.1,3.6,3.9,3.6,3.3,1.4,2.0,2.3,-,CALM,�L
2014/06/12,13:20,2.1,3.6,3.8,3.6,3.3,1.4,2.0,2.3,�k,10.2,�L
2014/06/12,13:30,2.1,3.6,3.8,3.6,3.3,1.4,2.0,2.3,�k,10.4,�L
2014/06/12,13:40,2.1,3.6,3.9,3.7,3.3,1.4,2.0,2.3,�k�k��,9.0,�L
2014/06/12,13:50,2.1,3.6,3.9,3.7,3.3,1.4,2.0,2.3,�k,10.7,�L
2014/06/12,14:00,2.1,3.6,3.9,3.7,3.3,1.4,2.0,2.3,�k,11.0,�L
2014/06/12,14:10,2.1,3.6,3.9,3.7,3.3,1.4,2.0,2.3,�k,11.6,�L
2014/06/12,14:20,2.1,3.7,3.9,3.7,3.4,1.4,2.0,2.3,�k,10.2,�L
2014/06/12,14:30,2.1,3.7,3.9,3.7,3.4,1.4,2.1,2.3,�k�k��,9.9,�L
2014/06/12,14:40,2.1,3.7,3.9,3.7,3.4,1.4,2.1,2.3,�k,8.0,�L
2014/06/12,14:50,2.2,3.7,4.0,3.7,3.5,1.4,2.1,2.4,�k,7.1,�L
2014/06/12,15:00,2.2,3.7,4.0,3.7,3.5,1.4,2.1,2.4,�k,7.1,��
2014/06/12,15:10,2.2,3.8,4.0,3.7,3.5,1.4,2.1,2.4,�k,6.3,�L
2014/06/12,15:20,2.2,3.8,4.0,3.8,3.5,1.4,2.1,2.4,�k,6.1,�L
2014/06/12,15:30,2.2,3.8,4.0,3.8,3.6,1.4,2.1,2.4,�k,6.0,�L
2014/06/12,15:40,2.2,3.8,4.1,3.8,3.6,1.5,2.1,2.4,�k�k��,5.6,��
2014/06/12,15:50,2.2,3.8,4.1,3.8,3.6,1.5,2.1,2.4,�k,5.0,��
2014/06/12,16:00,2.2,3.8,4.1,3.8,3.6,1.5,2.1,2.4,�k,5.4,��
2014/06/12,16:10,2.2,3.8,4.1,3.8,3.6,1.5,2.1,2.4,�k�k��,5.0,��
2014/06/12,16:20,2.2,3.8,4.1,3.8,3.7,1.5,2.1,2.4,�k�k��,5.2,��
2014/06/12,16:30,2.2,3.8,4.1,3.8,3.7,1.5,2.1,2.4,�k�k��,5.7,��
2014/06/12,16:40,2.2,3.8,4.1,3.8,3.7,1.5,2.1,2.4,�k,5.0,��
2014/06/12,16:50,2.2,3.8,4.1,3.8,3.7,1.5,2.1,2.4,�k�k��,6.6,��
2014/06/12,17:00,2.2,3.8,4.2,3.8,3.7,1.5,2.1,2.4,�k�k��,7.2,��
2014/06/12,17:10,2.2,3.8,4.2,3.8,3.7,1.5,2.1,2.4,�k�k��,7.9,��
2014/06/12,17:20,2.2,3.8,4.2,3.8,3.7,1.5,2.1,2.4,�k�k��,7.5,��
2014/06/12,17:30,2.2,3.8,4.2,3.8,3.7,1.5,2.1,2.4,�k�k��,7.4,��
2014/06/12,17:40,2.2,3.8,4.2,3.8,3.7,1.5,2.1,2.4,�k�k��,6.9,��
2014/06/12,17:50,2.2,3.8,4.2,3.8,3.8,1.5,2.1,2.4,�k,6.9,��
2014/06/12,18:00,2.2,3.8,4.2,3.8,3.8,1.5,2.1,2.4,�k�k��,6.4,��
2014/06/12,18:10,2.2,3.8,4.2,3.8,3.8,1.5,2.1,2.4,�k,5.6,��
2014/06/12,18:20,2.2,3.8,4.2,3.8,3.8,1.5,2.1,2.4,�k,5.3,��
2014/06/12,18:30,2.2,3.8,4.2,3.8,3.8,1.5,2.1,2.4,�k,4.7,��
2014/06/12,18:40,2.2,3.9,4.2,3.8,3.8,1.5,2.1,2.4,�k,5.4,��
2014/06/12,18:50,2.2,3.9,4.2,3.8,3.8,1.5,2.1,2.4,�k,5.7,��
2014/06/12,19:00,2.2,3.9,4.2,3.8,3.8,1.5,2.1,2.4,�k�k��,5.2,��
2014/06/12,19:10,2.2,3.9,4.2,3.8,3.8,1.5,2.1,2.4,�k�k��,4.6,��
2014/06/12,19:20,2.2,3.9,4.2,3.8,3.8,1.5,2.1,2.4,�k�k��,3.7,��
2014/06/12,19:30,2.2,3.9,4.2,3.8,3.8,1.5,2.1,2.4,�k�k��,3.8,��
2014/06/12,19:40,2.2,3.9,4.2,3.9,3.8,1.5,2.1,2.4,�k�k��,3.5,��
2014/06/12,19:50,2.2,3.9,4.2,3.8,3.8,1.5,2.1,2.4,�k�k��,3.0,��
2014/06/12,20:00,2.2,3.9,4.2,3.9,3.8,1.5,2.1,2.4,�k�k��,3.2,��
2014/06/12,20:10,2.2,3.9,4.2,3.9,3.8,1.5,2.1,2.4,�k��,1.9,��
2014/06/12,20:20,2.2,3.9,4.2,3.9,3.8,1.5,2.1,2.4,�k��,1.7,��
2014/06/12,20:30,2.2,3.9,4.2,3.9,3.8,1.5,2.1,2.4,�k�k��,1.4,��
2014/06/12,20:40,2.2,3.9,4.2,3.9,3.8,1.5,2.1,2.4,�k,2.0,��
2014/06/12,20:50,2.2,3.9,4.3,3.9,3.8,1.5,2.1,2.4,�k��,2.7,��
2014/06/12,21:00,2.2,3.9,4.3,3.9,3.8,1.5,2.1,2.4,�k��,3.6,��
2014/06/12,21:10,2.2,3.9,4.3,3.9,3.8,1.5,2.1,2.4,���k��,3.8,��
2014/06/12,21:20,2.2,3.9,4.3,3.9,3.8,1.5,2.1,2.4,�k��,2.4,��
2014/06/12,21:30,2.2,3.9,4.3,3.9,3.9,1.5,2.1,2.4,��,1.4,��
2014/06/12,21:40,2.2,3.9,4.3,3.9,3.9,1.5,2.1,2.4,���쐼,1.6,��
2014/06/12,21:50,2.2,3.9,4.3,3.9,3.9,1.5,2.1,2.4,��쐼,2.9,��
2014/06/12,22:00,2.2,3.9,4.3,3.9,3.9,1.5,2.1,2.4,��,4.5,��
2014/06/12,22:10,2.2,3.9,4.3,3.9,3.9,1.5,2.1,2.4,��,5.6,��
2014/06/12,22:20,2.2,3.9,4.3,3.9,3.9,1.5,2.1,2.4,��,4.9,��
2014/06/12,22:30,2.2,3.9,4.3,3.9,3.9,1.5,2.1,2.4,��,3.3,��
2014/06/12,22:40,2.2,3.9,4.3,3.9,3.9,1.5,2.1,2.4,��,2.5,��
2014/06/12,22:50,2.2,3.9,4.3,3.9,3.9,1.5,2.1,2.4,��쐼,2.1,��
2014/06/12,23:00,2.2,3.9,4.3,3.9,3.9,1.5,2.1,2.4,��쐼,1.7,��
2014/06/12,23:10,2.2,3.9,4.3,3.9,3.9,1.5,2.1,2.4,��,2.1,��
2014/06/12,23:20,2.2,3.9,4.3,3.9,3.9,1.5,2.1,2.4,��,1.8,��
2014/06/12,23:30,2.2,3.9,4.3,3.9,3.9,1.5,2.1,2.4,��,1.9,��
2014/06/12,23:40,2.2,3.9,4.3,3.9,3.9,1.5,2.1,2.4,��,1.0,��
2014/06/12,23:50,2.2,3.9,4.3,3.9,3.9,1.5,2.1,2.4,��쓌,1.4,��
